Location: Mount Etna
(38.6971°N, 119.1446°W)
Time: 20:04:21
(UTC+00:00)

Daily predictions for brighter satellites

Satellite Brightness Start Highest point End
(mag) Time Altitude Azimuth Time Altitude Azimuth Time Altitude Azimuth
Cosmos 2227 Rocket 4.4 12:10:12 13° N 12:10:12 13° N 12:10:48 10° N
CENTAUR R/B 4.3 12:12:49 17° NNW 12:18:35 38° NE 12:26:37 10° ESE
USA 234 4.2 12:13:01 10° ENE 12:19:14 45° SE 12:25:26 10° SSW
SL-16 R/B 2.0 12:28:21 82° WNW 12:28:32 83° WSW 12:34:10 10° SSE
SL-8 R/B 3.7 12:32:33 78° ESE 12:32:33 78° ESE 12:37:03 10° ESE
ADEOS 3.7 12:27:08 10° NNE 12:32:22 75° ESE 12:37:35 10° S
Cosmos 1745 Rocket 3.9 12:29:34 10° S 12:35:49 87° W 12:42:10 10° N
USA 238 DEB 4.3 12:36:35 21° NNW 12:41:36 59° NE 12:49:01 10° SE
USA 238 4.3 12:36:39 21° NNW 12:41:42 58° NE 12:49:07 10° SE
Cosmos 2151 3.3 12:38:21 10° S 12:42:29 63° E 12:46:39 10° NNE
SL-08 ROCKET BODY 4.3 12:39:32 10° SSW 12:45:29 60° W 12:51:34 10° N
ERS-2 2.4 12:42:14 10° SSE 12:45:29 65° ESE 12:45:29 65° ESE
SL-4 R/B 2.8 12:49:34 38° NNE 12:49:34 38° NNE 12:52:13 10° NE
Lacrosse 4 Rocket 4.2 12:47:15 10° NNE 12:49:03 12° NE 12:50:52 10° ENE
OAO 3 Rocket 3.4 12:48:32 50° SSW 12:49:03 53° S 12:53:40 10° ESE
BREEZE-M DEB (TANK) 4.3 12:47:37 15° S 12:49:31 27° ESE 12:54:18 10° ENE
Cosmos 1689 Rocket 4.4 12:50:17 10° SE 12:52:38 23° ENE 12:54:10 15° NNE
Cosmos 1777 Rocket 3.8 12:47:52 10° SSW 12:53:03 85° WNW 12:58:17 10° NNE
METEOR-M 4.0 12:51:11 10° N 12:56:32 75° WNW 13:01:50 10° SSW
SJ 16-02 3.1 12:53:02 10° SSE 12:56:59 33° E 13:00:58 10° NE
Lacrosse 5 3.8 12:53:07 10° S 12:57:28 29° ESE 13:01:49 10° ENE
COSMO-SKYMED 1 3.3 12:53:31 10° SSE 12:57:44 54° ENE 13:01:59 10° N
CZ-4B R/B 2.6 12:55:34 10° S 12:57:22 31° S 12:57:22 31° S
Cosmos 1606 2.8 12:57:12 26° N 12:59:14 72° E 13:03:01 10° SSE
Cosmos 1709 Rocket 4.1 12:55:28 10° S 13:01:47 84° E 13:08:13 10° N
Meteor 1-31 Rocket 2.6 12:58:27 10° N 13:02:17 66° WNW 13:06:04 10° SSW
BREEZE-M DEB (TANK) 2.6 13:02:39 55° NNE 13:02:39 55° NNE 13:05:26 10° ENE
Cosmos 389 Rocket 2.3 13:02:33 75° SW 13:02:33 75° SW 13:05:50 10° S
Cosmos 2263 Rocket 2.1 13:00:18 10° SSW 13:05:57 88° WNW 13:11:40 10° NNE
CZ-4B R/B 3.2 13:06:48 10° NNE 13:11:20 81° ESE 13:15:46 10° S
PSLV R/B 4.3 13:13:14 10° SSE 13:17:21 66° ENE 13:21:29 10° N
ALOS 2.9 13:14:20 10° N 13:18:29 32° WNW 13:22:37 10° SW
Cosmos 1441 Rocket 3.1 13:14:55 10° SSW 13:18:41 60° W 13:22:26 10° N
SKYMED 3 4.4 13:17:25 10° S 13:21:46 80° W 13:26:07 10° NNW
Cosmos 1603 3.9 13:17:16 10° NNW 13:22:53 72° ENE 13:28:30 10° SSE
Atlas Centaur 2 4.2 13:22:57 10° SSW 13:26:34 18° SSE 13:29:42 10° ESE
MOS 1 Rocket 4.3 13:26:55 10° SSE 13:31:18 48° ENE 13:36:00 10° N
Cosmos 1184 Rocket 2.7 13:29:31 10° S 13:32:47 87° W 13:36:05 10° N
ATLAS 3B R/B 4.3 13:27:27 10° NNW 13:33:22 29° NE 13:39:26 10° ESE
Cosmos 1943 3.3 13:29:39 10° NNW 13:35:23 80° ENE 13:41:05 10° SSE
ASTRO F (AKARI) 4.1 13:32:55 10° NNE 13:36:00 90° W 13:39:05 10° SSW
SJ-12 4.4 13:35:00 10° N 13:38:43 36° WNW 13:42:26 10° SW
SWAS 4.4 13:40:04 12° NNW 13:43:56 63° WSW 13:48:08 10° SSE
NOSS 3-4 (A) 3.3 13:38:58 10° SW 13:44:46 63° NW 13:50:56 10° NNE
NOSS 3-4 (C) 3.3 13:39:05 10° SW 13:44:53 64° NW 13:51:04 10° NNE
Envisat 3.5 13:40:25 10° NNE 13:45:29 66° E 13:50:31 10° S
SKYMED 2 4.0 13:41:44 10° S 13:45:49 41° W 13:49:57 10° NNW
NOSS 3-2 (C) 4.2 13:39:35 10° NW 13:47:24 81° WSW 13:56:06 10° SSE
Meteor 1-4 Rocket 2.4 13:44:53 10° N 13:48:21 87° E 13:51:48 10° S
Cosmos 2084 3.6 13:46:43 10° NNW 13:51:14 83° NE 13:55:44 10° SE
USA 276 3.5 13:50:36 17° W 13:52:08 24° SW 13:54:45 10° SSE
Cosmos 1515 Rocket 4.0 13:49:01 10° N 13:53:27 66° E 13:57:53 10° SSE
H-2A R/B 2.5 13:50:38 10° NNE 13:54:31 72° ESE 13:58:18 10° S
ERBS 3.9 13:55:24 15° WNW 13:56:28 17° NW 13:58:48 10° N
Okean O Rocket 3.1 13:53:15 10° NNE 13:57:28 42° E 14:01:40 10° S
Delta 2 Rocket 4.3 13:53:30 12° W 13:57:29 40° SSW 14:01:21 10° SE
ATLAS CENTAUR R/B 4.0 13:57:10 10° NNE 13:57:53 10° NE 13:58:36 10° NE
H-2A R/B 2.9 13:54:58 10° N 13:58:45 50° WNW 14:02:31 10° SSW
USA 234 3.5 13:55:58 10° NE 14:02:15 52° NW 14:08:32 10° WSW
ATLAS 2AS CENTAUR R/B 3.1 13:56:34 10° SW 14:04:27 66° NW 14:12:20 10° NNE
Cosmos 1933 4.3 14:04:14 10° NNW 14:07:46 29° W 14:11:17 10° SSW
Meteor 1-26 Rocket 4.4 14:03:11 10° NNW 14:08:52 54° W 14:14:19 10° S
PAYLOAD B 4.3 14:04:06 10° NNE 14:09:39 88° ESE 14:15:08 10° SSW
CENTAUR R/B 3.4 14:01:35 10° NW 14:09:50 63° WSW 14:18:33 10° SSE
Cosmos 1633 3.9 14:08:15 10° WSW 14:10:51 19° WNW 14:13:27 10° NNW
Cosmos 923 Rocket 4.0 14:06:02 10° NNW 14:11:20 84° WSW 14:16:38 10° SSE
Cosmos 1500 Rocket 3.5 14:10:06 10° S 14:14:24 87° W 14:18:44 10° N
SMAP 3.3 14:09:52 10° NNE 14:14:32 76° ESE 14:19:11 10° S
MOS 1-B 4.4 14:08:59 10° NNE 14:14:49 79° WNW 14:20:36 10° SSW
YAOGAN 6 2.6 14:12:18 10° N 14:15:42 50° WNW 14:19:05 10° SSW
ASTRO E2 4.3 14:12:54 10° WSW 14:16:19 28° S 14:19:43 10° SE
CZ-4C R/B 1.9 14:11:51 10° SW 14:16:36 81° WNW 14:22:16 10° NNE
RESURS DK-1 2.6 14:13:14 10° SSW 14:17:22 77° ESE 14:21:32 10° NNE
CZ-4B DEB 4.2 14:13:21 10° N 14:18:44 63° WNW 14:24:06 10° SSW
PSLV R/B 4.4 14:16:00 10° N 14:19:34 35° WNW 14:23:03 10° SW
Cosmos 1151 Rocket 3.9 14:17:13 10° NNW 14:20:49 27° W 14:24:26 10° SSW
Cosmos 1844 4.2 14:16:55 10° S 14:22:23 65° ESE 14:27:54 10° NNE
